Regional Weather Roundup
Issued by NWS Newport/Morehead, NC

Current Version | Previous Version | Text Only | Print | Product List | Glossary On
Versions: 1 2 3 4 5 6 7 8 9 10 11 12 13 14 15 16 17 18 19 20 21 22 23 24 25 26 27 28 29 30 31 32 33 34 35 36 37 38 39 40 41 42 43 44 45 46 47 48 49 50
000
ASUS42 KMHX 081625
RWRMHX
WEATHER ROUNDUP FOR EASTERN NORTH CAROLINA
NATIONAL WEATHER SERVICE NEWPORT/MOREHEAD CITY NC
1100 AM EST THU DEC 08 2016

NOTE: "FAIR" INDICATES FEW OR NO CLOUDS BELOW 12,000 FEET
WITH NO SIGNIFICANT WEATHER AND/OR OBSTRUCTIONS TO VISIBILITY

NCZ015>017-031-032-045>047-102-103-081700-
NORTH COAST

CITY           SKY/WX    TMP DP  RH WIND       PRES   REMARKS
EDENTON        CLOUDY    55  50  81 CALM      30.04F
ELIZABETH CITY CLOUDY    51  47  86 CALM      30.04F
KITTY HAWK     CLOUDY    53  49  83 CALM      30.02F
MANTEO         CLOUDY    54  47  76 SW3       30.04F

$$

NCZ045>047-081-094-103-104-081700-
CENTRAL COAST

CITY           SKY/WX    TMP DP  RH WIND       PRES   REMARKS
FRISCO         NOT AVBL

$$

NCZ095-097-098-100-101-081700-
SOUTHERN COAST

CITY           SKY/WX    TMP DP  RH WIND       PRES   REMARKS
BEAUFORT       SUNNY     60  51  72 W15       30.06S
CEDAR ISLAND   NOT AVBL
JACKSONVILLE   PTSUNNY   55  50  82 W10       30.07F
PINEY ISLAND   MOSUNNY  N/A N/A N/A W9        30.05
WILMINGTON     CLOUDY    56  52  86 W9        30.09F


$$

NCZ011>013-027>030-043-044-078>080-089-090>093-098-081700-
COASTAL PLAIN

CITY           SKY/WX    TMP DP  RH WIND       PRES   REMARKS
AHOSKIE        CLOUDY    50  46  85 W3        30.06S
CLINTON        CLOUDY    56  51  81 NW8G16    30.10R
ELIZABETHTOWN  PTSUNNY   57  49  75 NW7       30.10R
GOLDSBORO      PTSUNNY   54  52  94 W9        30.07R
GREENVILLE     CLOUDY    52  50  93 NW6       30.08F
HAVELOCK       CLOUDY    57  48  72 W16G22    30.07F
KENANSVILLE    NOT AVBL
KINSTON        CLOUDY    54  50  87 W6        30.08F FOG
NEW BERN       CLOUDY    56  49  77 W8        30.08F
RICHLANDS      CLOUDY    55  50  83 W7        30.08F
ROCKY MOUNT    CLOUDY    50  39  66 NW14G22   30.09S
WASHINGTON     CLOUDY    54  49  83 W5        30.06F
WHITEVILLE     CLOUDY    55  49  80 NW3       30.11S

$$

AMZ130-135-150-152-154-156-158-170-250-252-270-ANZ085-086-088-633-658-670-081700-
MARINE OBSERVATIONS

STATION/POSITION TIME  TEMP    WIND        PRES    WAVE   SWELL
                       AIR SEA DIR/SP/G            HT/PER HT/PER
                 (UTC) (F)     (DEG/KT/KT) (MB)    (FT/S) (FT/S)
CHESAPEAKE LIGHT NOT AVBL
64 E VA BEACH    1550   53 59  230/  6/  8 1016.9    4/10   3/10
DUCK             1600   52 54  210/  4/  6 1016.3
2 E DUCK         NOT AVBL
OREGON INLET     1600   53 55  190/  4/  4 1016.9
13E OREGON INLT  NOT AVBL
HATTERAS CG      1600   57 61  310/  2/  3 1016.8
DIAMOND BUOY     1550   61 78  300/  8/ 10 1017.2    4/11   3/11
CAPE LOOKOUT     1600   59     270/ 14/ 17 1017.7
BEAUFORT LAB     1600   59 55  250/  3/ 12 1016.9
30 SE NEW RVR IN 1608   53 70  300/ 14/ 19 1018.7
30 SE NEW RVR IN NOT AVBL
27 SE WRIGHTSVLE 1608   57 67  280/ 14/ 19 1018.2
5 SE WRIGHTSVLE  1608   54 62  290/ 10/ 16 1018.6
225 S CAPE HAT   1550   73 74  280/ 12/ 14 1018.0    5/10   5/10
41 SE CHARLESTON 1550   63 74  270/ 16/ 17 1018.9    2/ 9   2/ 9

$$




USA.gov is the U.S. government's official web portal to all federal, state and local government web resources and services.